Regional Weather Roundup
Issued by NWS

Home | Current Version | Previous Version | Graphics & Text | Print | Product List | Glossary On
Versions: 1 2 3 4 5 6 7 8 9 10 11 12 13 14 15 16 17 18 19 20 21 22 23 24 25 26 27 28 29 30 31 32 33 34 35 36 37 38 39 40 41 42 43 44 45 46 47 48 49 50
000
ASUS43 KTOP 072308
RWRKS

WEATHER ROUNDUP FOR KANSAS
NATIONAL WEATHER SERVICE GOODLAND KS
600 PM CDT TUE JUL 07 2015

NOTE:  "FAIR" INDICATES FEW OR NO CLOUDS BELOW 12,000 FEET WITH NO
SIGNIFICANT WEATHER AND/OR OBSTRUCTIONS TO VISIBILITY.

KSZ001>006-013>018-027>032-041>047-080000-
NORTHWEST KANSAS

CITY           SKY/WX    TMP DP  RH WIND       PRES   REMARKS
GOODLAND       MOSUNNY   75  43  31 SE10      30.12F
HAYS           SUNNY     79  46  31 E15G22    30.07F
HILL CITY      MOSUNNY   76  48  37 E8        30.09F
RUSSELL        MOSUNNY   76  49  38 E14G22    30.06F
$$

KSZ061>065-074>080-084>089-080000-
SOUTHWEST KANSAS

CITY           SKY/WX    TMP DP  RH WIND       PRES   REMARKS
DODGE CITY     MOSUNNY   76  45  33 E10       30.08F
ELKHART          N/A     77  51  40 E8          N/A
GARDEN CITY    SUNNY     76  46  34 E14       30.07F
GREAT BEND     PTSUNNY   73  48  40 NE13      30.08S
LIBERAL        MOSUNNY   75  48  38 E9        30.09S
PRATT          CLOUDY    70  45  40 E10G16    30.08F
$$

KSZ066>073-081>083-090>101-080000-
SOUTHEAST KANSAS

CITY           SKY/WX    TMP DP  RH WIND       PRES   REMARKS
CHANUTE        LGT RAIN  64  62  93 NE9       30.05S FOG
COFFEYVILLE    LGT RAIN  66  63  90 N12       30.01F FOG
HUTCHINSON     CLOUDY    70  52  52 NE7       30.07F
MEDICINE LODGE   N/A     66  55  67 NE9       30.06F
NEWTON         CLOUDY    64  48  55 NE6       30.09S
PARSONS        CLOUDY    66  64  93 N6        30.04F FOG
WICHITA INTL   CLOUDY    68  52  56 NE15      30.06F
WICHITA JABRA  CLOUDY    67  56  67 N9        30.06S
WICHITA MCCONL CLOUDY    69  55  62 NE12      30.05F
WINFIELD       LGT RAIN  64  61  90 NE10      30.05F FOG
$$

KSZ007>012-019>026-033>040-048>060-102>105-080000-
NORTHEAST KANSAS

CITY           SKY/WX    TMP DP  RH WIND       PRES   REMARKS
CONCORDIA      MOSUNNY   73  47  39 NE10      30.08F
EMPORIA        CLOUDY    69  57  65 N10       30.06S
LAWRENCE       CLOUDY    69  61  75 N3        30.06F
MANHATTAN      CLOUDY    71  53  52 E10       30.06F
MARYSVILLE     PTSUNNY   70  54  56 NE7       30.08S
OLATHE IND     CLOUDY    69  60  73 N10       30.06S
OLATHE EXE     CLOUDY    70  59  68 NE8       30.04S
SALINA         CLOUDY    74  48  39 NE10      30.07F
TOPEKA BILLARD LGT RAIN  69  61  75 CALM      30.06F
TOPEKA FORBES  CLOUDY    70  60  70 NE3       30.06F HAZE
$$


USA.gov is the U.S. government's official web portal to all federal, state and local government web resources and services.